Temp
80 90 95 90 77 79 78 80 88 84 84 92 93 91 92 97 91 86 101 105 105 100 94 86 79 79 79 79 79 79 78 78 78 78 78 78 78 78 78 78 78 79 79 79 79 79 79 79 79
92 90 91 91 74 73 78 87 83 89 91 92 92 92 91 90 102 100 101 100 102 99 93 91 79 79 79 79 78 78 78 78 78 78 78 78 78 78 78 78 78 79 79 79 79 79 79 78 78
89 92 87 82 78 74 80 86 89 90 93 91 89 95 92 91 100 102 106 100 101 96 93 92 79 79 79 79 78 78 78 78 78 78 78 78 78 77 77 78 78 79 79 79 79 79 78 78 78
89 89 88 75 75 82 84 85 88 87 92 93 93 87 95 98 99 107 103 102 99 97 96 88 79 79 79 79 79 78 78 78 78 78 78 78 78 77 77 77 78 79 79 79 79 78 78 78 78
89 86 75 73 76 84 87 89 87 86 90 92 94 89 92 99 101 105 102 102 101 99 98 94 79 79 79 79 79 78 78 78 78 78 78 78 77 77 77 77 78 78 79 79 79 78 77 77 77
81 84 69 68 73 81 87 91 90 89 90 92 91 92 95 102 101 104 106 106 108 102 98 97 80 78 78 79 78 78 77 77 77 77 78 77 77 77 77 77 77 78 78 78 78 78 77 77 77
77 77 72 75 75 77 84 93 89 90 91 92 98 90 97 100 105 105 106 107 106 105 99 98 93 84 78 78 77 77 77 77 77 77 77 77 77 77 76 76 77 77 77 77 77 77 77 77 76
81 80 73 77 74 74 86 88 94 92 91 97 97 90 91 100 102 105 107 106 105 104 102 99 95 93 89 89 77 77 77 77 76 76 76 76 77 76 76 75 76 77 77 77 77 77 77 76 76
85 72 71 75 75 75 83 84 94 95 92 93 95 95 96 100 101 102 101 103 104 102 99 98 97 94 93 96 89 78 77 77 76 77 76 77 85 84 84 80 78 76 76 76 76 76 76 76 76
76 72 75 83 83 76 81 86 89 87 89 89 91 95 97 98 99 100 100 101 102 102 102 100 92 93 93 95 93 87 88 86 84 85 84 83 85 86 87 83 77 76 76 76 76 76 76 76 89
76 71 81 83 84 82 80 85 91 86 84 91 90 92 94 95 96 97 100 103 103 103 104 102 94 89 90 92 93 92 90 89 87 85 85 84 86 87 86 88 84 83 78 84 81 81 84 86 88
71 78 79 81 83 77 76 84 84 87 88 95 93 93 93 92 95 97 98 100 102 101 100 100 96 88 86 93 92 93 92 91 89 88 85 85 85 85 85 87 87 84 87 85 87 87 86 86 85
73 76 80 82 81 79 79 77 81 85 91 95 95 93 91 92 92 94 96 98 99 98 99 100 98 91 87 85 92 91 92 92 91 91 87 86 86 84 85 86 88 87 89 87 86 86 85 82 84
77 76 77 79 79 79 76 78 81 85 91 90 89 89 92 93 94 93 94 94 94 97 98 99 97 93 89 86 86 90 89 91 91 91 89 84 86 85 85 84 85 87 88 88 86 86 82 82 86
73 68 73 76 78 75 77 70 74 84 88 87 87 88 90 92 94 93 94 93 95 97 97 94 94 93 88 86 87 89 92 90 91 90 87 86 83 84 82 84 85 86 86 83 84 82 82 82 85
65 67 61 73 75 77 72 62 79 86 85 84 85 88 89 91 93 95 96 95 94 94 93 94 97 96 89 88 89 90 92 92 91 91 89 85 82 83 81 85 85 86 85 84 82 81 79 83 83
64 57 63 66 77 75 70 65 76 84 85 84 86 88 89 91 93 94 94 94 93 92 91 92 93 93 89 88 89 89 88 88 90 90 89 86 82 81 82 83 85 83 84 82 81 81 82 81 76
57 60 62 63 73 74 70 68 75 82 82 83 86 87 88 90 90 94 94 93 92 91 90 89 90 90 87 88 87 90 90 88 88 89 88 85 83 81 80 83 83 81 82 78 80 79 81 78 78
62 61 61 66 72 70 69 68 72 79 79 80 82 84 85 87 91 92 92 92 91 89 88 88 88 86 85 88 87 87 87 87 86 87 84 83 82 81 79 83 80 79 81 78 77 79 77 75 77
59 56 57 64 66 68 67 66 73 76 78 80 80 81 83 85 87 89 90 90 88 87 87 87 87 87 84 88 86 90 88 89 88 86 80 82 81 80 79 80 80 78 81 77 78 77 74 75 77
55 53 55 57 64 66 64 61 66 74 77 79 80 81 82 82 83 85 87 88 89 88 87 87 86 86 84 85 86 84 85 84 82 79 78 78 79 77 77 77 80 78 81 80 77 76 75 75 74
50 60 59 57 55 50 64 49 63 69 71 75 78 79 81 83 85 86 86 86 87 89 90 89 86 85 85 83 85 81 83 81 83 81 75 74 76 76 76 79 80 78 82 78 79 79 77 74 71
53 61 58 58 55 54 56 53 61 69 67 72 76 79 81 83 85 86 88 89 91 91 89 88 85 84 84 83 84 83 83 86 84 82 70 73 75 76 81 80 80 79 82 79 79 78 75 75 77
61 56 55 55 52 43 54 54 57 63 68 73 78 81 82 84 86 88 89 89 88 90 88 86 83 82 83 82 81 81 82 83 83 79 72 76 77 79 80 82 80 79 80 78 79 77 75 76 77
57 49 38 36 39 39 56 53 57 68 73 74 75 79 82 84 85 86 87 88 88 86 87 86 84 82 82 82 81 82 81 80 79 79 81 80 78 79 78 79 79 80 79 79 78 75 76 75 75
52 48 40 31 37 44 55 47 58 71 75 77 79 80 81 82 85 86 87 87 88 87 86 84 83 82 82 82 81 82 81 84 83 84 82 83 83 82 79 80 80 80 79 78 77 79 78 76 75
50 42 55 45 48 45 54 57 65 71 72 74 76 77 79 80 82 83 85 86 86 84 79 81 82 81 81 81 81 80 83 82 82 79 80 83 82 81 80 80 79 79 78 78 77 79 76 76 73
52 56 34 46 32 35 49 53 55 64 66 73 73 74 76 78 79 81 82 83 81 78 82 82 82 81 81 81 82 82 81 81 80 80 80 80 80 81 79 79 78 78 78 78 76 77 76 73 71
48 44 45 46 47 39 44 52 68 67 70 70 72 74 76 77 75 76 78 74 73 82 82 81 81 81 81 82 81 81 81 80 81 80 80 79 79 79 79 79 79 78 77 77 74 74 75 72 68
46 42 39 34 40 49 45 52 70 68 70 69 71 75 78 78 67 68 68 70 81 82 82 81 81 82 82 82 81 80 80 80 79 79 79 80 79 80 80 80 80 80 79 78 77 75 76 64 62
MSLP
1012.71 1011.93 1011.44 1010.33 1008.77 1006.00 1002.91 1001.84 1001.77 1001.57 1001.79 1001.87 1001.93 1001.57 1000.82 1000.29 1000.55 1001.01 1002.55 1003.06 1003.56 1004.63 1006.00 1007.74 1008.43 1008.94 1009.41 1009.86 1010.14 1010.40 1010.63 1010.97 1011.22 1011.66 1012.05 1012.32 1012.55 1012.78 1013.04 1013.36 1013.73 1013.91 1014.07 1014.23 1014.34 1014.47 1014.59 1014.60 1014.69
1011.43 1011.48 1010.78 1008.47 1006.86 1003.83 1001.73 1001.36 1001.35 1001.13 1001.50 1002.15 1002.02 1001.85 1001.15 1000.71 1000.42 1001.42 1002.30 1003.55 1004.08 1004.78 1006.05 1006.98 1008.14 1008.55 1009.13 1009.59 1010.02 1010.43 1010.70 1011.00 1011.24 1011.49 1011.84 1012.16 1012.50 1012.68 1013.05 1013.27 1013.48 1013.72 1014.05 1014.24 1014.41 1014.52 1014.60 1014.78 1014.86
1011.47 1010.99 1008.92 1007.05 1005.14 1002.82 1000.69 1001.18 1000.96 1001.48 1001.77 1001.85 1001.82 1001.83 1001.45 1001.20 1001.22 1001.51 1002.07 1003.60 1004.31 1005.14 1005.99 1006.65 1007.62 1008.09 1008.64 1009.32 1009.90 1010.33 1010.71 1010.97 1011.22 1011.47 1011.75 1012.03 1012.30 1012.53 1012.83 1013.10 1013.34 1013.52 1013.74 1014.07 1014.25 1014.41 1014.57 1014.68 1014.70
1010.78 1010.08 1008.74 1006.60 1003.76 1002.85 1001.69 1001.84 1001.70 1001.70 1001.45 1001.54 1001.67 1001.52 1001.62 1001.58 1001.33 1001.38 1002.75 1003.46 1004.15 1005.13 1005.71 1006.44 1007.40 1007.84 1008.41 1009.02 1009.60 1010.25 1010.62 1010.87 1011.18 1011.53 1011.75 1011.87 1012.29 1012.46 1012.66 1013.02 1013.23 1013.39 1013.68 1013.81 1014.10 1014.39 1014.62 1014.68 1014.71
1010.39 1008.96 1007.05 1005.31 1003.81 1002.81 1002.54 1002.50 1002.66 1002.01 1001.58 1001.13 1001.18 1000.67 1000.80 1001.41 1001.93 1001.89 1002.66 1003.43 1003.83 1004.80 1005.43 1006.37 1007.48 1007.80 1008.33 1008.97 1009.48 1010.15 1010.71 1010.97 1011.19 1011.55 1011.81 1011.97 1012.28 1012.55 1012.80 1013.07 1013.27 1013.27 1013.44 1013.61 1013.97 1014.29 1014.50 1014.69 1014.75
1009.11 1008.20 1006.22 1004.45 1003.66 1003.16 1002.67 1002.35 1002.21 1001.82 1001.41 1001.05 1000.95 1000.47 1000.45 1001.23 1001.75 1001.87 1002.41 1002.96 1003.52 1004.42 1005.32 1005.83 1007.54 1008.02 1008.50 1008.89 1009.31 1009.89 1010.33 1010.80 1011.02 1011.39 1011.69 1012.02 1012.32 1012.55 1012.85 1013.11 1013.23 1013.24 1013.41 1013.52 1013.81 1014.08 1014.30 1014.48 1014.60
1008.33 1007.02 1005.10 1004.06 1003.24 1003.03 1002.50 1002.27 1001.87 1001.43 1000.74 1000.42 1000.39 1000.17 1000.19 1001.00 1001.32 1001.95 1002.34 1002.78 1003.45 1004.12 1005.09 1005.82 1006.83 1007.84 1008.54 1008.86 1009.16 1009.56 1009.96 1010.49 1010.84 1011.17 1011.55 1011.96 1012.33 1012.50 1012.77 1012.86 1013.15 1013.37 1013.58 1013.65 1013.91 1014.09 1014.28 1014.48 1014.48
1007.97 1006.67 1004.80 1003.66 1003.20 1002.70 1002.79 1002.49 1001.67 1001.11 1000.47 1000.99 1001.04 999.84 1000.19 1000.73 1001.76 1002.05 1002.40 1002.80 1003.39 1004.10 1004.70 1005.41 1006.03 1006.94 1007.71 1008.22 1009.03 1009.39 1009.76 1010.09 1010.62 1010.97 1011.30 1011.80 1012.24 1012.43 1012.70 1012.82 1012.93 1013.25 1013.61 1013.81 1013.89 1014.06 1014.20 1014.35 1014.46
1008.19 1006.41 1003.93 1002.95 1002.84 1003.07 1003.30 1002.65 1001.69 1001.41 1000.79 1001.06 1000.82 1000.44 1001.11 1001.57 1001.89 1001.95 1002.37 1002.73 1002.98 1003.62 1004.51 1005.18 1005.67 1006.20 1006.75 1007.13 1007.96 1009.16 1009.81 1010.17 1010.43 1010.80 1011.19 1011.53 1011.63 1012.08 1012.31 1012.53 1012.65 1013.26 1013.51 1013.73 1013.87 1013.98 1014.17 1014.31 1014.25
1007.12 1005.03 1003.14 1002.77 1002.67 1003.49 1003.31 1002.65 1001.71 1001.64 1001.06 1000.88 1001.15 1001.79 1001.84 1001.85 1001.95 1001.76 1001.90 1002.02 1002.23 1002.65 1003.58 1004.63 1005.58 1006.00 1006.37 1006.47 1007.05 1008.07 1008.62 1009.18 1009.61 1009.99 1010.36 1010.88 1010.93 1011.06 1011.33 1011.77 1012.64 1013.07 1013.29 1013.42 1013.58 1013.78 1013.96 1014.02 1012.60
1006.14 1003.86 1003.21 1002.85 1003.21 1003.95 1003.53 1002.48 1001.95 1001.79 1000.74 1000.30 1000.77 1001.40 1001.92 1002.21 1002.20 1002.28 1001.98 1001.77 1001.92 1002.26 1002.66 1003.59 1004.92 1005.85 1006.07 1006.18 1006.41 1006.96 1007.56 1007.95 1008.51 1009.06 1009.39 1009.78 1010.05 1010.43 1011.00 1011.08 1011.93 1012.39 1012.90 1012.59 1012.98 1013.21 1013.02 1012.41 1012.08
1005.69 1004.24 1004.08 1003.25 1003.60 1004.47 1003.97 1003.21 1001.94 1001.55 1001.13 1000.77 1001.38 1001.82 1002.16 1002.26 1002.28 1002.22 1002.09 1001.98 1001.91 1002.07 1002.62 1003.30 1004.22 1005.26 1005.81 1005.77 1006.10 1006.09 1006.34 1006.83 1007.28 1007.69 1008.47 1008.76 1009.24 1009.49 1009.85 1010.14 1010.59 1011.31 1011.25 1011.55 1011.37 1011.16 1011.36 1011.63 1011.90
1004.71 1004.22 1003.91 1003.80 1004.08 1004.08 1004.23 1003.20 1002.13 1001.12 1001.10 1001.18 1001.36 1001.85 1002.19 1002.19 1002.32 1002.39 1002.40 1002.28 1002.32 1002.30 1002.52 1002.80 1003.48 1004.33 1005.05 1005.59 1005.29 1005.43 1005.46 1005.77 1006.11 1006.63 1007.39 1008.04 1008.26 1008.80 1009.57 1009.64 1009.68 1010.04 1010.37 1010.67 1010.99 1011.18 1011.04 1011.31 1011.43
1004.81 1004.49 1004.06 1003.78 1003.59 1003.94 1003.80 1002.64 1002.75 1000.56 1001.13 1000.77 1001.30 1001.41 1001.35 1001.45 1001.67 1002.11 1002.10 1002.15 1002.21 1002.07 1002.11 1002.24 1002.88 1003.66 1004.33 1004.65 1004.78 1004.62 1004.98 1004.91 1005.52 1005.91 1006.22 1007.29 1007.64 1008.02 1008.67 1009.20 1009.41 1009.31 1009.64 1009.97 1010.45 1010.68 1011.16 1011.46 1011.20
1005.88 1004.95 1004.17 1003.05 1003.08 1003.07 1003.75 1002.45 1001.05 1000.73 1000.82 1000.44 1000.51 1000.58 1000.73 1000.75 1001.09 1001.23 1001.42 1001.51 1001.80 1001.75 1001.72 1001.99 1002.46 1002.93 1003.47 1003.73 1004.03 1004.31 1004.10 1004.62 1004.57 1004.90 1005.66 1006.36 1007.27 1007.47 1008.07 1008.39 1008.65 1008.82 1009.30 1010.07 1010.34 1010.84 1011.06 1011.13 1010.98
1006.21 1005.18 1003.21 1001.26 1002.67 1002.56 1003.78 1001.04 998.85 1000.14 999.82 1000.03 999.88 999.88 999.84 999.80 1000.01 1000.34 1000.49 1000.74 1001.42 1001.48 1001.51 1001.90 1001.89 1002.15 1002.71 1002.89 1003.13 1003.40 1003.39 1003.61 1003.93 1004.10 1004.67 1005.77 1006.52 1007.02 1007.58 1007.71 1008.04 1008.25 1008.86 1009.43 1010.07 1010.49 1010.69 1010.43 1010.58
1005.08 1002.82 1001.58 1001.00 1001.20 1002.00 1002.79 1000.28 999.30 999.79 998.90 998.78 998.95 998.90 999.01 998.93 998.99 999.51 1000.25 1000.71 1001.03 1000.90 1001.23 1001.47 1001.70 1001.74 1002.09 1002.29 1002.48 1002.59 1002.90 1003.11 1003.18 1003.68 1004.12 1004.85 1005.90 1006.54 1007.05 1007.32 1007.36 1007.96 1008.48 1009.12 1009.57 1010.00 1009.91 1009.84 1010.80
1003.26 1002.44 1001.88 1000.82 1000.62 1000.88 1000.97 999.25 999.74 999.13 998.35 998.12 998.17 998.26 998.27 998.25 998.66 999.31 999.65 999.91 1000.26 1000.69 1000.91 1001.11 1001.23 1001.30 1001.74 1001.92 1002.02 1001.92 1002.00 1002.53 1002.82 1003.12 1003.66 1004.37 1005.34 1006.10 1006.75 1006.62 1006.95 1007.79 1008.13 1008.70 1009.07 1009.24 1009.45 1010.05 1010.27
1004.53 1003.00 1001.33 1000.94 1001.06 1000.81 999.79 998.96 998.95 999.16 998.71 998.05 998.02 997.97 997.94 997.83 998.25 998.64 998.89 999.27 999.73 1000.14 1000.31 1000.34 1000.52 1000.84 1001.22 1001.10 1001.10 1001.04 1001.01 1001.64 1002.24 1002.69 1003.49 1004.23 1005.04 1005.65 1006.10 1006.05 1006.74 1007.45 1007.55 1008.16 1008.89 1009.12 1009.36 1009.71 1010.23
1004.94 1004.03 1002.59 1002.26 1002.24 1000.92 1000.04 998.55 998.66 998.58 997.66 997.61 997.62 997.75 997.60 997.62 997.86 998.02 998.33 998.50 998.92 999.47 999.59 999.62 999.79 1000.10 1000.49 1000.32 1000.43 1000.19 1000.39 1000.71 1001.48 1002.45 1003.50 1004.09 1004.69 1005.02 1005.35 1005.63 1006.19 1006.95 1007.18 1007.86 1008.18 1008.77 1009.11 1009.50 1010.01
1005.52 1004.54 1003.60 1002.79 1002.41 1001.68 1000.88 999.01 998.19 997.68 997.51 997.32 997.24 997.59 997.61 997.37 997.21 997.31 997.48 997.75 998.04 998.36 998.63 998.79 999.17 999.34 999.59 999.81 1000.12 1000.47 1000.54 1000.97 1001.57 1002.69 1003.22 1003.77 1004.19 1004.69 1005.20 1005.72 1005.92 1006.62 1006.80 1007.20 1007.90 1008.46 1008.84 1008.86 1009.73
1004.92 1004.89 1004.41 1003.62 1003.05 1000.91 1001.03 998.19 997.57 997.08 996.55 996.45 996.32 996.57 996.59 996.59 996.39 996.36 996.55 996.76 996.94 997.13 997.50 997.82 998.30 998.53 999.00 999.44 999.20 999.52 999.62 1000.19 1000.93 1001.72 1002.99 1003.65 1004.14 1004.61 1005.20 1005.46 1005.86 1006.36 1006.36 1007.01 1007.55 1008.17 1008.38 1008.89 1009.12
1004.75 1004.72 1004.21 1003.64 1002.65 1001.97 1000.49 999.10 996.52 996.52 995.42 995.16 995.23 995.48 995.58 995.62 995.32 995.12 995.18 995.23 995.52 995.97 996.51 996.95 997.48 997.76 998.03 998.46 998.65 999.09 999.30 999.68 1000.68 1001.53 1002.86 1003.40 1003.94 1004.44 1004.67 1005.16 1005.68 1006.07 1006.09 1006.87 1007.22 1007.78 1008.36 1008.59 1008.36
1005.30 1005.04 1004.53 1003.99 1003.29 1000.64 999.40 998.67 996.24 995.74 994.68 994.51 994.34 994.31 994.54 994.56 994.20 994.16 994.27 994.63 994.89 995.26 995.83 996.49 996.79 997.01 997.41 997.97 998.45 998.77 999.07 999.35 1000.07 1001.19 1002.41 1002.95 1003.49 1004.06 1004.46 1004.91 1005.42 1005.95 1006.29 1006.72 1007.16 1007.69 1008.12 1008.27 1008.18
1005.30 1005.05 1004.39 1003.34 1002.05 1000.31 999.65 998.27 996.36 995.02 994.23 994.15 994.33 994.23 993.91 993.96 993.79 993.67 993.57 993.60 994.03 994.59 995.13 995.61 996.14 996.48 997.18 997.75 998.15 998.63 999.14 999.56 1000.17 1000.92 1001.17 1001.92 1002.84 1003.50 1004.36 1004.84 1005.40 1005.82 1006.29 1006.60 1007.07 1007.55 1007.67 1008.17 1008.29
1004.89 1004.91 1003.81 1002.18 1000.69 999.45 999.19 996.84 995.35 995.57 994.99 994.33 994.25 994.28 994.03 993.70 993.25 993.15 993.10 993.35 993.51 994.02 994.75 995.36 995.79 996.25 996.99 997.54 998.06 998.62 999.25 999.41 1000.04 1000.26 1001.09 1001.54 1002.27 1003.09 1004.30 1004.80 1005.36 1005.75 1006.21 1006.57 1006.99 1007.11 1007.36 1007.62 1008.10
1004.99 1005.16 1004.33 1002.88 1001.29 999.10 996.51 996.52 996.26 994.96 994.67 994.36 993.96 994.01 993.73 993.65 993.37 993.19 993.01 993.15 993.48 994.12 995.09 995.35 995.62 996.29 996.99 997.62 998.14 998.84 998.93 999.34 999.85 1000.78 1001.35 1001.93 1002.44 1003.46 1004.32 1004.87 1005.37 1005.75 1006.09 1006.41 1006.75 1006.56 1007.08 1007.33 1007.93
1005.05 1005.24 1005.85 1003.25 1001.70 998.50 996.00 994.58 994.08 993.12 994.28 994.05 994.06 994.39 994.13 993.88 993.50 993.32 993.49 993.56 994.17 995.01 994.93 995.36 995.93 996.51 997.23 997.82 998.42 998.77 999.26 999.90 1000.50 1001.06 1001.51 1002.24 1002.99 1003.63 1004.39 1004.88 1005.26 1005.61 1005.91 1006.21 1006.52 1006.37 1006.80 1007.36 1008.00
1005.67 1005.96 1005.82 1004.28 1001.63 998.57 995.46 993.63 993.13 992.87 993.34 994.37 994.79 994.66 994.31 994.08 994.47 994.40 994.59 995.00 995.35 994.84 995.26 995.72 996.24 996.78 997.46 998.09 998.57 999.08 999.69 1000.26 1000.87 1001.44 1002.12 1002.79 1003.39 1003.94 1004.35 1004.73 1005.12 1005.45 1005.75 1005.99 1006.37 1006.58 1006.70 1007.15 1008.01
1006.11 1006.51 1006.16 1004.39 1002.29 999.49 997.69 994.05 993.53 994.06 994.95 995.49 995.26 994.66 994.54 994.40 995.61 995.77 995.73 995.75 994.71 995.03 995.57 996.00 996.40 996.98 997.76 998.27 998.87 999.65 1000.25 1000.76 1001.29 1001.82 1002.44 1003.09 1003.52 1003.95 1004.31 1004.62 1004.88 1005.10 1005.42 1005.69 1005.90 1006.06 1006.16 1007.19 1007.93
Wind_Speed
11 10 5 6 8 8 14 8 4 8 6 3 1 6 15 11 16 1 5 13 13 21 22 24 22 21 19 18 17 17 16 16 16 16 15 15 15 14 14 13 11 10 10 10 9 8 7 7 7
7 6 6 4 9 12 12 10 13 8 6 4 5 9 10 9 8 4 11 13 17 18 19 23 23 23 21 19 18 17 17 17 16 16 16 16 15 14 14 14 14 12 11 10 9 8 8 6 5
8 8 7 7 12 15 8 9 9 5 4 5 4 9 6 11 6 1 11 15 16 17 18 20 25 23 22 21 18 18 17 17 17 17 17 16 16 15 15 14 14 14 13 12 10 9 9 8 5
7 6 6 12 17 17 11 5 3 3 5 3 9 7 5 1 2 6 16 16 16 17 18 19 24 23 22 21 20 18 18 17 17 17 17 17 16 16 15 15 14 14 13 12 11 9 8 7 6
5 5 11 15 21 19 9 12 9 11 10 9 9 9 5 7 4 10 18 14 14 15 16 18 21 21 20 20 19 18 17 17 17 17 17 17 16 15 15 14 14 14 14 13 12 10 9 7 6
8 7 11 17 19 18 15 15 12 13 12 11 11 10 7 8 11 13 17 14 12 13 13 15 18 17 17 19 19 18 18 18 18 18 17 16 16 15 14 14 14 13 13 14 13 12 10 8 6
16 11 17 20 17 16 18 17 15 14 9 12 10 15 8 11 11 12 14 12 10 10 12 12 16 16 14 16 18 18 18 18 18 17 16 16 15 14 14 15 14 13 12 11 11 10 9 7 7
11 13 22 20 17 22 14 11 14 13 12 3 7 9 11 14 10 11 12 11 11 10 10 10 12 17 17 17 16 16 18 18 18 17 17 16 15 15 15 14 13 13 11 11 9 9 9 8 7
14 12 17 23 19 13 5 14 15 6 9 6 3 4 8 8 10 10 11 12 10 9 9 10 12 13 15 16 16 15 17 17 17 16 16 14 13 15 16 14 13 14 12 11 10 9 9 8 9
16 18 26 21 14 11 16 16 11 7 17 12 7 8 8 10 9 9 10 13 14 13 12 11 11 13 13 12 13 15 16 15 15 15 16 14 14 13 14 14 11 14 13 12 12 11 10 10 8
21 27 21 22 14 12 17 19 14 14 18 17 14 8 2 1 5 6 8 9 7 5 7 12 12 12 13 12 10 8 9 10 12 18 16 15 12 11 11 9 10 10 13 9 12 12 10 11 6
27 26 26 24 14 11 19 20 23 21 20 18 6 6 11 12 11 11 11 10 11 5 5 8 12 12 13 10 10 11 10 11 11 15 17 12 11 12 11 10 11 11 9 11 11 9 9 9 9
28 29 23 23 22 18 16 23 24 25 22 22 20 17 17 17 16 15 13 13 11 11 8 7 7 11 11 14 11 11 12 12 13 13 16 14 14 11 11 11 11 11 10 10 9 10 9 9 9
16 25 29 28 22 19 25 27 21 27 23 23 20 22 22 19 17 14 14 14 14 13 13 10 8 8 11 13 14 11 11 12 12 12 13 19 14 11 13 12 13 11 11 10 10 9 6 8 8
23 26 24 25 27 28 16 27 36 29 25 22 21 21 22 21 19 19 17 15 15 14 12 11 9 8 12 14 13 12 11 11 12 12 14 17 16 13 13 13 13 12 10 10 8 7 6 7 7
17 22 25 32 25 23 23 29 38 28 29 25 26 23 23 23 21 20 18 14 14 11 9 10 10 9 11 11 10 10 11 11 11 11 11 17 17 17 14 12 13 11 10 10 9 7 8 8 8
21 25 30 29 27 24 20 35 37 32 28 25 24 24 22 23 22 15 14 14 12 11 10 12 12 14 12 11 12 11 11 10 10 10 11 14 16 17 13 13 12 11 10 9 9 9 9 7 6
22 26 27 28 21 25 29 36 29 26 13 24 27 26 24 23 19 17 15 12 14 13 12 13 14 12 11 10 9 10 9 9 9 10 10 13 12 16 14 12 12 11 10 8 10 9 6 7 6
25 28 22 18 21 26 26 35 31 28 29 27 23 20 20 20 20 18 17 16 16 15 15 14 14 12 9 9 10 10 10 9 9 9 11 12 12 15 15 11 11 12 11 10 9 8 10 7 4
22 26 31 19 15 21 25 32 28 27 29 28 27 27 25 24 23 21 20 17 17 17 15 15 14 11 10 9 8 6 7 9 8 8 9 12 14 14 13 12 11 12 11 11 11 11 6 6 6
23 25 25 27 20 18 21 27 27 22 24 23 24 23 24 25 25 23 21 20 19 18 15 14 13 11 12 12 8 7 7 5 7 9 9 11 12 9 12 11 10 12 10 11 10 9 10 6 5
21 22 26 24 23 24 21 20 24 25 29 29 27 25 25 25 25 23 23 23 21 18 15 13 12 11 11 13 11 12 10 9 8 8 8 8 11 12 12 13 11 12 10 9 10 8 7 6 7
19 19 24 22 23 26 29 21 17 18 21 19 17 20 23 24 24 25 24 22 19 17 15 13 13 12 12 12 12 11 11 7 9 10 12 10 10 11 13 12 12 11 8 9 8 8 8 7 8
13 17 20 19 14 19 23 23 19 20 26 22 18 19 21 21 19 18 19 17 16 13 13 12 12 11 11 12 13 12 12 10 10 13 11 11 10 10 12 13 11 10 8 8 7 8 8 7 5
16 16 11 16 19 19 21 21 19 7 2 1 8 15 8 11 13 13 12 12 12 11 12 10 10 10 10 12 12 12 12 12 13 15 12 14 11 10 12 12 11 9 9 8 7 7 6 7 7
21 19 16 21 18 20 27 23 17 16 14 15 11 10 10 11 11 10 12 10 10 10 9 8 10 10 12 12 12 12 13 10 11 11 12 10 10 11 13 11 10 9 9 8 7 7 7 8 8
19 21 21 25 18 19 17 26 26 19 12 9 3 6 8 10 11 14 11 8 7 7 6 10 11 12 13 14 12 13 12 14 13 15 11 10 11 11 11 11 10 9 8 8 9 7 8 7 7
8 12 5 16 14 20 17 22 15 25 27 16 0 9 13 14 12 6 4 8 7 8 10 12 13 15 15 15 14 13 14 14 14 12 12 12 11 11 11 10 8 7 8 8 8 7 7 8 6
5 9 12 15 18 13 12 16 19 14 11 8 7 12 15 15 11 8 4 5 9 12 13 13 15 16 15 15 15 15 14 14 13 12 12 12 11 11 10 8 8 8 8 7 6 8 8 8 7
9 11 6 6 20 16 11 4 12 18 14 6 11 15 16 15 8 4 3 6 12 14 14 14 15 16 15 15 15 14 14 14 13 12 12 11 10 9 9 9 8 8 7 6 7 7 5 7 6
Wind_Direction
215 204 227 217 234 242 238 211 237 174 199 142 279 198 215 185 181 183 107 130 146 158 161 171 171 173 177 177 175 172 168 168 166 167 165 168 168 167 164 162 164 164 162 157 155 149 144 141 141
189 177 217 243 250 224 219 201 194 187 95 331 224 202 221 201 187 89 144 147 152 153 162 175 175 173 177 179 176 176 176 175 173 172 173 173 174 170 170 167 167 167 169 166 160 151 143 148 148
196 235 247 230 233 245 224 177 195 144 240 254 223 220 191 234 225 257 105 152 151 156 167 178 175 177 176 177 179 180 179 180 179 178 179 179 177 173 174 173 172 172 172 170 164 161 163 161 154
187 199 235 246 236 226 258 77 101 231 290 226 214 191 188 335 217 175 145 154 153 163 175 166 176 179 177 176 178 183 183 183 183 184 183 181 182 179 176 178 178 176 175 171 171 174 175 174 177
213 262 242 232 246 252 250 260 277 278 295 255 205 208 212 166 155 141 152 158 162 167 179 168 179 182 178 176 178 183 187 186 187 188 189 185 185 183 180 181 181 181 180 177 179 181 184 192 200
206 253 235 238 244 251 253 255 260 259 256 249 224 223 196 127 168 156 161 166 167 170 180 175 181 184 180 177 178 186 189 192 190 192 191 188 189 182 184 187 190 188 189 186 186 187 191 199 212
242 222 244 252 248 257 253 258 251 256 263 220 230 207 157 164 142 161 167 162 168 172 180 185 181 187 184 184 184 189 190 195 195 193 191 193 190 188 191 190 194 197 199 193 195 195 200 212 217
229 254 252 247 247 248 257 263 241 242 233 23 244 214 178 142 150 155 170 174 181 175 186 193 193 189 199 193 193 193 196 196 198 196 192 192 194 195 198 195 197 202 204 205 201 203 208 219 223
230 238 243 243 234 242 250 249 249 263 263 205 160 38 63 139 150 163 176 189 191 193 192 201 194 199 202 207 194 198 205 205 201 200 197 188 202 199 201 204 189 205 207 209 209 209 218 224 228
217 227 238 245 250 232 239 241 248 244 223 220 179 128 96 140 164 175 194 201 205 206 200 206 209 210 206 213 210 202 209 210 209 207 203 209 208 207 210 200 203 198 207 208 210 212 217 222 236
223 242 240 246 243 247 252 252 247 241 245 214 198 167 146 220 208 229 244 226 225 226 244 205 200 213 214 211 207 211 209 212 211 212 207 202 204 207 203 203 195 203 205 205 198 199 219 220 250
241 244 241 257 254 245 247 259 254 247 246 247 259 233 284 281 274 263 272 281 288 304 249 213 205 204 215 223 211 216 217 210 213 207 206 206 203 202 203 205 196 202 195 213 210 205 213 216 221
236 244 249 243 251 247 254 251 250 246 245 248 251 253 253 260 264 273 274 274 274 275 254 225 210 206 209 215 228 221 222 216 217 214 204 209 207 204 200 203 205 197 203 201 207 232 209 213 222
245 246 249 254 247 245 245 252 256 245 247 254 256 256 255 255 255 249 253 260 271 268 264 264 248 214 210 221 223 226 223 226 216 221 214 207 213 200 201 205 207 205 207 205 214 219 215 233 237
258 263 260 249 240 240 254 260 247 251 251 252 255 257 258 257 256 256 262 258 260 255 262 267 263 226 216 221 228 231 234 222 226 216 216 209 209 209 206 207 210 207 204 213 218 214 210 233 239
252 250 248 238 231 236 227 257 252 239 243 239 254 254 259 263 263 263 259 254 247 252 261 259 260 254 233 235 232 233 234 228 227 217 211 212 207 215 200 211 212 205 205 201 204 202 209 228 232
236 248 237 251 236 229 216 242 252 261 259 246 243 253 255 260 263 260 257 253 252 267 258 255 259 262 259 241 242 234 235 227 222 217 210 199 205 205 210 216 212 202 206 198 197 208 227 224 240
237 237 244 259 248 224 222 243 245 257 253 250 253 250 253 249 252 255 254 270 270 258 250 252 261 261 245 250 235 238 222 219 219 213 209 196 198 200 203 212 213 198 202 197 202 215 208 238 237
266 269 265 275 261 257 238 241 248 246 252 256 259 253 255 259 267 274 276 269 264 263 254 247 247 242 225 219 221 218 214 203 206 205 198 191 191 198 201 212 193 202 206 198 191 208 213 224 232
261 258 260 257 288 248 246 250 251 247 250 250 252 254 260 266 266 267 265 262 259 258 254 251 244 235 220 218 222 226 210 198 193 190 172 192 194 194 195 202 186 195 191 192 191 202 206 212 210
253 254 256 254 261 239 251 252 251 249 256 256 258 260 261 262 264 265 266 263 260 254 250 248 248 228 222 225 205 193 164 169 168 185 181 188 188 174 188 192 189 181 194 186 186 195 210 225 210
264 249 255 254 250 244 231 254 242 240 243 242 245 246 251 256 257 260 260 257 254 256 251 246 234 224 213 203 199 195 185 178 190 168 170 161 171 171 180 182 182 185 193 159 182 197 214 223 222
262 270 249 242 246 244 243 259 258 256 256 255 251 254 253 255 257 257 258 258 259 254 251 242 242 238 224 201 210 185 209 170 160 159 149 157 161 167 171 173 176 176 183 169 170 191 209 218 257
261 273 257 240 256 250 237 237 253 251 255 252 250 254 250 255 268 268 263 255 247 247 241 235 230 219 196 192 192 190 182 162 154 138 150 154 155 163 162 167 170 165 171 180 189 202 211 236 225
238 238 245 225 229 240 240 231 242 269 325 231 296 265 228 267 269 263 259 237 226 227 219 216 210 195 182 182 175 177 164 162 155 155 155 149 148 158 162 166 167 169 176 179 189 194 195 203 217
229 233 243 243 233 232 224 239 224 231 265 266 255 260 272 269 277 272 276 249 236 214 211 205 201 174 167 161 157 153 152 153 146 148 137 137 150 152 154 163 165 167 176 188 186 188 207 197 208
233 250 263 264 269 276 226 214 250 247 243 233 238 339 334 319 304 294 271 216 205 173 166 188 157 147 148 142 137 143 144 145 123 131 141 150 136 130 154 156 163 173 186 185 182 213 205 202 206
297 250 323 249 258 249 238 211 220 211 227 247 25 4 357 352 332 330 242 178 127 152 147 136 138 137 132 133 134 130 124 124 128 131 130 137 129 141 152 160 170 178 182 189 200 203 206 202 188
273 241 242 249 245 268 227 215 208 214 118 106 32 11 360 7 348 6 7 105 155 140 132 133 130 129 130 130 123 124 123 126 131 132 134 135 139 147 155 163 169 174 184 198 212 223 216 207 174
169 226 230 255 224 250 302 36 119 111 114 69 11 13 356 20 7 353 111 158 153 135 134 132 129 129 128 125 120 121 125 128 132 133 134 141 142 148 153 161 168 177 191 199 218 226 225 138 164